Simultaneous Nadir Overpasses (SNOs) Predictions

Prediction of SNOs between GOES-17 and LANDSAT-8 Satellite Orbit:

Table of predicted SNOs for the next 14.0 days since TLE Epoch: 2/13/2025
Index Date Time (GOES-17) GOES-17 Lat,Lon LANDSAT-8 Lat,Lon Distance(km) Time Diff (sec)
1 02/14/2025 17:06:35 -0.00,-104.67 -0.30,-103.30 156.57 80
2 02/15/2025 05:27:59 0.00,-104.69 -0.81,-108.49 431.71 80
3 02/16/2025 16:54:23 -0.01,-104.68 -0.91,-100.34 493.28 80
4 02/17/2025 05:15:48 0.00,-104.70 -0.15,-105.54 95.14 80
5 02/19/2025 05:00:56 0.00,-104.70 0.48,-102.58 241.55 80
6 02/19/2025 17:22:11 -0.00,-104.68 0.63,-107.73 347.08 80
7 02/21/2025 17:09:58 -0.00,-104.68 0.04,-104.77 10.71 80
8 02/23/2025 17:00:26 -0.00,-104.68 -0.64,-101.82 325.94 80
9 02/24/2025 05:21:49 0.00,-104.70 -0.51,-107.00 261.42 80
10 02/26/2025 05:06:56 0.01,-104.70 0.13,-104.04 74.99 80
